When you browse on this site, cookies collect data to enhance your experience and personalize the content and advertising you see.
Visit our Privacy Policy to learn more. By continuing to use the site, you agree to this use of cookies and data.

Hourly Weather Campo Grande

Today, 22 September, Tuesday

Time Temperature Precipitation Wind Pressure Humidity
00:00 +19°C° 0.4 mm 3 mps 711 mmHg 91%
01:00 +19°C° 0.4 mm 3 mps 711 mmHg 91%
02:00 +19°C° 0.4 mm 3 mps 711 mmHg 91%
03:00 +19°C° 0 mm 3 mps 711 mmHg 91%
04:00 +19°C° 0 mm 3 mps 711 mmHg 90%
05:00 +19°C° 0 mm 3 mps 711 mmHg 90%
06:00 +20°C° 0 mm 3 mps 712 mmHg 85%
07:00 +21°C° 0 mm 4 mps 713 mmHg 80%
08:00 +22°C° 0 mm 4 mps 713 mmHg 76%
09:00 +25°C° 0 mm 4 mps 714 mmHg 68%
10:00 +26°C° 0 mm 3 mps 714 mmHg 60%
11:00 +28°C° 0 mm 3 mps 714 mmHg 52%
12:00 +28°C° 0.2 mm 3 mps 713 mmHg 53%
13:00 +28°C° 0.2 mm 3 mps 713 mmHg 53%
14:00 +28°C° 0.2 mm 3 mps 712 mmHg 53%
15:00 +28°C° 0.1 mm 3 mps 712 mmHg 55%
16:00 +27°C° 0.1 mm 4 mps 711 mmHg 57%
17:00 +27°C° 0.1 mm 4 mps 711 mmHg 59%
18:00 +26°C° 0 mm 4 mps 711 mmHg 63%
19:00 +23°C° 0 mm 5 mps 711 mmHg 67%
20:00 +22°C° 0 mm 5 mps 712 mmHg 71%
21:00 +22°C° 0 mm 5 mps 712 mmHg 71%
22:00 +22°C° 0 mm 5 mps 712 mmHg 72%
23:00 +21°C° 0 mm 6 mps 712 mmHg 73%

Tomorrow, 23 September, Wednesday

Time Temperature Precipitation Wind Pressure Humidity
00:00 +21°C° 0 mm 6 mps 712 mmHg 74%
01:00 +20°C° 0 mm 6 mps 712 mmHg 75%
02:00 +20°C° 0 mm 6 mps 712 mmHg 76%
03:00 +20°C° 0 mm 6 mps 712 mmHg 77%
04:00 +20°C° 0 mm 5 mps 712 mmHg 77%
05:00 +19°C° 0 mm 5 mps 712 mmHg 77%
06:00 +21°C° 0 mm 5 mps 713 mmHg 73%
07:00 +22°C° 0 mm 5 mps 713 mmHg 68%
08:00 +23°C° 0 mm 5 mps 714 mmHg 63%
09:00 +27°C° 0 mm 5 mps 714 mmHg 56%
10:00 +29°C° 0 mm 4 mps 715 mmHg 49%
11:00 +32°C° 0 mm 4 mps 715 mmHg 42%
12:00 +33°C° 0 mm 3 mps 714 mmHg 40%
13:00 +33°C° 0 mm 3 mps 713 mmHg 38%
14:00 +34°C° 0 mm 2 mps 712 mmHg 37%
15:00 +33°C° 0 mm 3 mps 712 mmHg 38%
16:00 +33°C° 0 mm 3 mps 712 mmHg 40%
17:00 +31°C° 0 mm 3 mps 711 mmHg 42%
18:00 +29°C° 0 mm 4 mps 711 mmHg 46%
19:00 +28°C° 0 mm 4 mps 712 mmHg 50%
20:00 +26°C° 0 mm 5 mps 712 mmHg 54%
21:00 +26°C° 0 mm 5 mps 712 mmHg 56%
22:00 +25°C° 0 mm 5 mps 712 mmHg 58%
23:00 +25°C° 0 mm 5 mps 712 mmHg 60%

Day after tomorrow, 24 September, Thursday

Time Temperature Precipitation Wind Pressure Humidity
00:00 +23°C° 0 mm 5 mps 712 mmHg 61%
01:00 +23°C° 0 mm 5 mps 711 mmHg 62%
02:00 +23°C° 0 mm 5 mps 711 mmHg 62%
03:00 +22°C° 0 mm 5 mps 711 mmHg 64%
04:00 +22°C° 0 mm 5 mps 711 mmHg 65%
05:00 +22°C° 0 mm 5 mps 711 mmHg 67%
06:00 +23°C° 0 mm 6 mps 712 mmHg 63%
07:00 +26°C° 0 mm 6 mps 713 mmHg 59%
08:00 +27°C° 0 mm 6 mps 713 mmHg 54%
09:00 +30°C° 0 mm 6 mps 713 mmHg 47%
10:00 +33°C° 0 mm 5 mps 713 mmHg 40%
11:00 +35°C° 0 mm 4 mps 713 mmHg 33%
12:00 +36°C° 0 mm 4 mps 712 mmHg 30%
13:00 +37°C° 0 mm 3 mps 711 mmHg 27%
14:00 +38°C° 0 mm 3 mps 711 mmHg 24%
15:00 +37°C° 0 mm 3 mps 710 mmHg 25%
16:00 +36°C° 0 mm 3 mps 710 mmHg 26%
17:00 +35°C° 0 mm 3 mps 709 mmHg 27%
18:00 +34°C° 0 mm 3 mps 709 mmHg 31%
19:00 +31°C° 0 mm 3 mps 710 mmHg 35%
20:00 +29°C° 0 mm 4 mps 710 mmHg 39%
21:00 +29°C° 0 mm 4 mps 710 mmHg 40%
22:00 +28°C° 0 mm 5 mps 710 mmHg 42%
23:00 +28°C° 0 mm 5 mps 710 mmHg 43%

25 September, Friday

Time Temperature Precipitation Wind Pressure Humidity
00:00 +27°C° 0 mm 5 mps 710 mmHg 44%
01:00 +27°C° 0 mm 6 mps 709 mmHg 45%
02:00 +26°C° 0 mm 6 mps 709 mmHg 45%
03:00 +26°C° 0 mm 5 mps 709 mmHg 46%
04:00 +26°C° 0 mm 5 mps 709 mmHg 46%
05:00 +26°C° 0 mm 5 mps 709 mmHg 47%
06:00 +28°C° 0 mm 5 mps 710 mmHg 43%
07:00 +30°C° 0 mm 6 mps 711 mmHg 39%
08:00 +33°C° 0 mm 6 mps 711 mmHg 35%
09:00 +35°C° 0 mm 6 mps 711 mmHg 31%
10:00 +37°C° 0 mm 5 mps 711 mmHg 27%
11:00 +40°C° 0 mm 4 mps 711 mmHg 22%
12:00 +41°C° 0 mm 4 mps 710 mmHg 21%
13:00 +41°C° 0 mm 4 mps 709 mmHg 19%
14:00 +42°C° 0 mm 4 mps 708 mmHg 18%
15:00 +41°C° 0 mm 4 mps 708 mmHg 19%
16:00 +39°C° 0 mm 3 mps 707 mmHg 20%
17:00 +38°C° 0 mm 2 mps 707 mmHg 22%
18:00 +36°C° 0 mm 2 mps 707 mmHg 24%
19:00 +34°C° 0 mm 2 mps 707 mmHg 27%
20:00 +32°C° 0 mm 2 mps 707 mmHg 29%
21:00 +31°C° 0 mm 2 mps 707 mmHg 31%
22:00 +30°C° 0 mm 2 mps 707 mmHg 32%
23:00 +30°C° 0 mm 2 mps 708 mmHg 34%

26 September, Saturday

Time Temperature Precipitation Wind Pressure Humidity
00:00 +29°C° 0 mm 3 mps 707 mmHg 35%
01:00 +29°C° 0 mm 3 mps 707 mmHg 37%
02:00 +28°C° 0 mm 3 mps 707 mmHg 39%
03:00 +28°C° 0 mm 4 mps 707 mmHg 39%
04:00 +28°C° 0 mm 4 mps 707 mmHg 39%
05:00 +28°C° 0 mm 4 mps 708 mmHg 39%
06:00 +30°C° 0 mm 5 mps 708 mmHg 34%
07:00 +34°C° 0 mm 6 mps 709 mmHg 29%
08:00 +36°C° 0 mm 7 mps 710 mmHg 24%
09:00 +38°C° 0 mm 6 mps 710 mmHg 22%
10:00 +40°C° 0 mm 6 mps 709 mmHg 21%
11:00 +41°C° 0 mm 6 mps 709 mmHg 19%
12:00 +42°C° 0 mm 6 mps 708 mmHg 18%
13:00 +42°C° 0 mm 5 mps 708 mmHg 17%
14:00 +42°C° 0 mm 5 mps 707 mmHg 16%
15:00 +41°C° 0 mm 4 mps 706 mmHg 17%
16:00 +39°C° 0 mm 3 mps 706 mmHg 18%
17:00 +39°C° 0 mm 2 mps 706 mmHg 18%
18:00 +37°C° 0 mm 2 mps 706 mmHg 20%
19:00 +35°C° 0 mm 2 mps 706 mmHg 22%
20:00 +32°C° 0 mm 1 mps 706 mmHg 24%
21:00 +31°C° 0 mm 1 mps 706 mmHg 25%
22:00 +31°C° 0 mm 1 mps 706 mmHg 27%
23:00 +31°C° 0 mm 1 mps 707 mmHg 28%

27 September, Sunday

Time Temperature Precipitation Wind Pressure Humidity
00:00 +30°C° 0 mm 2 mps 706 mmHg 28%
01:00 +30°C° 0 mm 3 mps 706 mmHg 29%
02:00 +29°C° 0 mm 3 mps 706 mmHg 30%
03:00 +29°C° 0 mm 3 mps 706 mmHg 30%
04:00 +29°C° 0 mm 3 mps 706 mmHg 31%
05:00 +28°C° 0 mm 3 mps 706 mmHg 32%
06:00 +30°C° 0 mm 4 mps 707 mmHg 31%
07:00 +34°C° 0 mm 4 mps 708 mmHg 29%
08:00 +36°C° 0 mm 5 mps 709 mmHg 27%
09:00 +37°C° 0 mm 5 mps 709 mmHg 25%
10:00 +40°C° 0 mm 6 mps 709 mmHg 24%
11:00 +41°C° 0 mm 6 mps 709 mmHg 22%
12:00 +41°C° 0 mm 6 mps 708 mmHg 22%
13:00 +41°C° 0 mm 5 mps 708 mmHg 22%
14:00 +41°C° 0 mm 5 mps 707 mmHg 22%
15:00 +38°C° 0 mm 4 mps 707 mmHg 24%
16:00 +37°C° 0 mm 4 mps 706 mmHg 26%
17:00 +36°C° 0 mm 3 mps 706 mmHg 27%
18:00 +35°C° 0 mm 3 mps 706 mmHg 31%
19:00 +32°C° 0 mm 2 mps 706 mmHg 34%
20:00 +30°C° 0 mm 2 mps 706 mmHg 38%
21:00 +30°C° 0 mm 2 mps 707 mmHg 40%
22:00 +29°C° 0 mm 1 mps 707 mmHg 43%
23:00 +29°C° 0 mm 1 mps 707 mmHg 45%
Show more